Flag for Canada Weather past 2 weeks in Grande Prairie, Alberta, Canada

Now
16 °F

Overcast.


Feels Like: 16 °F
Forecast: 18 / 28 °F
Wind: 2 mph from Northeast

Location: Grande Prairie

Current Time: Dec 21, 2014 at 4:04:39 AM

Latest Report: Dec 21, 2014 at 3:00 AM


Visibility: 25 mi

Pressure: 29.37 "Hg

Humidity: 93%

Dew point: 14 °F

Location of Grande PrairieLocation

Historic Weather in Grande Prairie — Graph

°F

Grande Prairie temperature yesterday

Maximum temperature yesterday: 14 °F (at 11:00 PM)
Minimum temperature yesterday: 0 °F (at 4:00 AM)
Average temperature yesterday: 6 °F

Past Weeks' High & Low Weather Summary

 TemperatureHumidityPressure
High48 °F (Dec 9, 7:00 PM)100% (Dec 12, 8:58 AM)30.44 "Hg (Dec 12, 8:58 AM)
Low-8 °F (Dec 16, 8:00 AM)58% (Dec 9, 7:00 PM)29.24 "Hg (Dec 11, 2:00 AM)
Average12 °F88%29.88 "Hg
* Reported Dec 6 3:00 AM — Dec 21 3:00 AM, Grande Prairie, Weather by CustomWeather, © 2014

Note: Actual official high and low records may vary slightly from our data, if they occured in-between our weather recording intervals... More about our weather records

Advertising

Grande Prairie weather history for previous 24 hours

 ConditionsComfort  
Time TempWeatherWind HumidityBarometerVisibility
3:00 AM
Dec 21
16 °FOvercast.2 mph93%29.37 "Hg25 mi
2:00 AM16 °FMostly cloudy.5 mph93%29.35 "Hg25 mi
1:00 AM14 °FOvercast.2 mph92%29.34 "Hg25 mi
12:00 AM16 °FMostly cloudy.No wind86%29.36 "Hg25 mi
11:00 PM
Dec 20
14 °FMostly cloudy.2 mph92%29.37 "Hg25 mi
10:00 PM12 °FMostly cloudy.3 mph92%29.40 "Hg25 mi
9:00 PM12 °FMostly cloudy.No wind92%29.41 "Hg25 mi
8:00 PM10 °FMostly cloudy.3 mph92%29.43 "Hg25 mi
7:00 PM10 °FPassing clouds.3 mph85%29.45 "Hg25 mi
6:00 PM7 °FPassing clouds.5 mph92%29.46 "Hg25 mi
5:00 PM10 °FPassing clouds.5 mph92%29.48 "Hg25 mi
4:00 PM10 °FPartly sunny.3 mph92%29.50 "Hg25 mi
3:00 PM10 °FPartly sunny.8 mph92%29.53 "Hg25 mi
2:00 PM12 °FPartly sunny.7 mph92%29.54 "Hg25 mi
1:00 PM10 °FPartly sunny.5 mph85%29.57 "Hg25 mi
12:00 PM7 °FPartly sunny.2 mph92%29.60 "Hg20 mi
11:00 AM7 °FPartly sunny.3 mph85%29.64 "Hg20 mi
10:00 AM3 °FPartly sunny.3 mph85%29.67 "Hg15 mi
9:00 AM1 °FPassing clouds.5 mph85%29.68 "Hg10 mi
8:00 AM1 °FIce fog.5 mph85%29.72 "Hg1 mi
7:00 AM1 °FIce fog.6 mph85%29.73 "Hg1 mi
6:00 AM0 °FIce fog.3 mph84%29.74 "Hg1 mi
5:00 AM0 °FIce fog.No wind84%29.75 "Hg2 mi
4:00 AM0 °FIce fog.3 mph84%29.76 "Hg1 mi
Weather by CustomWeather, © 2014

See weather overviewHow to use our weather pages